Simultaneous Nadir Overpasses (SNOs) Predictions

Prediction of SNOs between NOAA-15 and METOP-C Satellite Orbit:

Table of predicted SNOs for the next 14.0 days since TLE Epoch: 4/7/2021
Index Date (NOAA-15) Time (NOAA-15) Lat,Lon (NOAA-15) SZA (NOAA-15 ) Date (METOP-C) Time (METOP-C) Lat,Lon (METOP-C) SZA (METOP-C ) Distance(km) Time Diff (sec)
1 04/20/2021 22:03:01 81.01,-113.93 71.02 04/20/2021 22:01:54 80.99,-113.87 70.99 2.05 67
2 04/20/2021 22:53:32 -81.01, 53.49 108.99 04/20/2021 22:52:34 -81.00, 53.56 109.02 1.64 58
3 04/20/2021 23:44:03 81.00,-139.09 71.01 04/20/2021 23:43:15 81.00,-139.00 70.99 1.56 48
4 04/21/2021 00:34:34 -81.00, 28.33 109.01 04/21/2021 00:33:55 -81.01, 28.43 109.01 1.80 39
5 04/21/2021 01:25:05 81.00,-164.25 70.99 04/21/2021 01:24:36 81.01,-164.12 71.00 2.49 29



Historial Predications of SNOs between NOAA-15 and METOP-C
